1514761200.03,34169,7.69,72968.5,-3.17,-18.83,-20.09,0,*55
1514761201.29,34170,7.69,72970.8,-3.13,-19.07,-20.35,0,*5B
1514761202.56,34171,7.69,72974.5,-3.17,-19.17,-20.53,0,*5F
1514761203.82,34172,7.63,72960.0,-3.17,-18.89,-20.25,0,*5B
1514761205.08,34173,7.63,72956.5,-3.17,-19.03,-20.19,0,*56
1514761206.33,34174,7.69,72948.0,-3.17,-19.13,-20.39,0,*52
1514761207.56,34175,7.69,72948.8,-3.17,-19.03,-20.29,0,*53
1514761208.8,34176,7.63,72954.3,-3.17,-18.99,-20.09,0,*50
1514761210.07,34177,7.69,72956.3,-3.17,-19.17,-20.53,0,*59
1514761211.31,34178,7.63,72958.5,-3.17,-19.37,-20.73,0,*56
1514761212.6,34179,7.63,72966.5,-3.17,-19.65,-20.99,0,*54
1514761213.85,34180,7.69,72968.8,-3.17,-19.75,-21.03,0,*51
1514761215.09,34181,7.69,72968.5,-3.17,-19.51,-20.73,0,*50
1514761216.34,34182,7.63,72976.3,-3.19,-19.65,-20.89,0,*5F
1514761217.56,34183,7.69,72972.8,-3.19,-19.81,-21.13,0,*56
1514761218.83,34184,7.63,72978.8,-3.21,-19.71,-20.79,0,*58
1514761220.07,34185,7.63,72968.5,-3.19,-19.23,-20.29,0,*50
1514761221.29,34186,7.69,72968.8,-3.19,-19.17,-20.39,0,*55
1514761222.55,34187,7.69,72962.5,-3.21,-19.41,-20.73,0,*52
1514761223.82,34188,7.69,72964.3,-3.21,-19.57,-20.63,0,*5B
1514761225.11,34189,7.69,72956.0,-3.21,-19.23,-20.35,0,*5A
1514761226.33,34190,7.69,72948.5,-3.19,-19.37,-20.69,0,*55
1514761227.57,34191,7.63,72938.8,-3.19,-19.31,-20.39,0,*57
1514761228.79,34192,7.69,72936.0,-3.19,-18.83,-20.05,0,*53
1514761230.04,34193,7.69,72936.3,-3.21,-18.89,-19.99,0,*5C
1514761231.33,34194,7.69,72926.3,-3.21,-18.93,-20.15,0,*5E
1514761232.6,34195,7.63,72928.8,-3.21,-19.23,-20.43,0,*56
1514761233.84,34196,7.69,72946.5,-3.21,-19.37,-20.59,0,*5B
1514761235.12,34197,7.69,72932.3,-3.21,-19.27,-20.59,0,*5B
1514761236.37,34198,7.69,72940.8,-3.21,-19.37,-20.43,0,*5E
1514761237.66,34199,7.69,72920.3,-3.21,-19.23,-20.35,0,*5B
1514761238.9,34200,7.69,72930.0,-3.19,-19.37,-20.53,0,*56
1514761240.19,34201,7.69,72908.5,-3.21,-19.23,-20.35,0,*59
1514761241.45,34202,7.69,72926.3,-3.21,-18.93,-20.09,0,*5F
1514761242.7,34203,7.63,72944.5,-3.21,-19.07,-20.25,0,*5C
1514761243.95,34204,7.69,72936.5,-3.21,-19.07,-20.15,0,*58
1514761245.21,34205,7.63,72952.8,-3.21,-19.07,-20.15,0,*59
1514761246.45,34206,7.63,72956.5,-3.21,-19.07,-20.25,0,*59
1514761247.71,34207,7.69,72944.8,-3.21,-18.65,-19.81,0,*59
1514761248.95,34208,7.69,72960.5,-3.19,-18.69,-19.61,0,*5F
1514761250.16,34209,7.63,72946.8,-3.19,-18.45,-19.51,0,*53
1514761251.39,34210,7.69,72944.0,-3.19,-18.59,-19.75,0,*50
1514761252.63,34211,7.69,72932.8,-3.19,-18.45,-19.61,0,*59
1514761253.86,34212,7.69,72920.3,-3.17,-18.07,-19.17,0,*53
1514761255.09,34213,7.69,72932.3,-3.17,-18.45,-19.47,0,*51
1514761256.35,34214,7.69,72940.3,-3.13,-18.69,-19.85,0,*52
1514761257.59,34215,7.69,72946.0,-3.11,-18.93,-19.91,0,*51
1514761258.82,34216,7.69,72950.3,-3.13,-18.83,-19.91,0,*51
1514761260.05,34217,7.63,72942.3,-3.13,-18.49,-19.47,0,*5D
1514761261.29,34218,7.69,72924.8,-3.13,-18.79,-19.75,0,*50
1514761262.54,34219,7.63,72922.0,-3.13,-18.55,-19.71,0,*5B
1514761263.77,34220,7.69,72914.8,-3.13,-18.49,-19.47,0,*59
1514761265.03,34221,7.69,72922.0,-3.11,-18.55,-19.61,0,*53
1514761266.27,34222,7.69,72930.8,-3.11,-18.93,-19.91,0,*55
1514761267.53,34223,7.69,72946.3,-3.09,-18.73,-19.81,0,*52
1514761268.74,34224,7.69,72956.0,-3.11,-19.07,-20.09,0,*54
1514761269.97,34225,7.69,72942.3,-3.13,-19.07,-20.05,0,*5B
1514761271.21,34226,7.69,72936.8,-3.11,-18.93,-19.91,0,*51
1514761272.47,34227,7.69,72934.8,-3.09,-18.89,-19.95,0,*56
1514761273.73,34228,7.69,72928.8,-3.11,-18.93,-19.85,0,*5A
1514761275.0,34229,7.69,72926.0,-3.11,-18.55,-19.57,0,*5E
1514761276.24,34230,7.63,72926.3,-3.11,-18.65,-19.57,0,*55
1514761277.45,34231,7.69,72920.8,-3.11,-18.41,-19.37,0,*54
1514761278.71,34232,7.63,72918.5,-3.09,-18.59,-19.51,0,*57
1514761279.94,34233,7.69,72926.8,-3.09,-18.73,-19.71,0,*5C
1514761281.18,34234,7.63,72924.5,-3.09,-18.65,-19.71,0,*5C
1514761282.47,34235,7.69,72920.5,-3.09,-18.59,-19.57,0,*56
1514761283.72,34236,7.69,72932.3,-3.05,-18.83,-19.81,0,*55
1514761284.99,34237,7.69,72928.0,-3.09,-19.13,-20.19,0,*5B
1514761286.26,34238,7.69,72924.5,-3.09,-19.13,-20.15,0,*58
1514761287.48,34239,7.69,72926.8,-3.11,-19.13,-20.09,0,*5D
1514761288.72,34240,7.63,72932.0,-3.09,-19.13,-20.09,0,*5A
1514761289.97,34241,7.69,72950.3,-3.11,-19.27,-20.25,0,*5B
1514761291.21,34242,7.69,72942.0,-3.09,-19.03,-20.09,0,*59
1514761292.47,34243,7.69,72938.8,-3.09,-18.89,-19.95,0,*54
1514761293.73,34244,7.63,72948.3,-3.09,-18.79,-19.85,0,*5D
1514761294.99,34245,7.69,72952.8,-3.09,-19.07,-20.15,0,*57
1514761296.22,34246,7.69,72946.0,-3.09,-18.73,-19.71,0,*5E
1514761297.48,34247,7.63,72934.5,-3.09,-18.73,-19.81,0,*50
1514761298.77,34248,7.69,72942.8,-3.09,-18.59,-19.65,0,*5D
1514761300.06,34249,7.69,72944.5,-3.09,-18.59,-19.57,0,*5D
1514761301.29,34250,7.69,72932.5,-3.07,-18.73,-19.65,0,*52
1514761302.53,34251,7.63,72926.5,-3.07,-18.73,-19.85,0,*5D
1514761303.77,34252,7.63,72942.3,-3.07,-18.65,-19.57,0,*56
1514761305.0,34253,7.63,72948.8,-3.07,-18.73,-19.65,0,*51
1514761306.26,34254,7.63,72956.0,-3.05,-18.83,-19.81,0,*51
1514761307.51,34255,7.63,72958.3,-3.05,-18.89,-19.91,0,*5B
1514761308.73,34256,7.69,72956.3,-3.07,-19.07,-20.09,0,*56
1514761309.96,34257,7.63,72952.3,-3.05,-19.07,-20.09,0,*55
1514761311.19,34258,7.69,72954.3,-3.05,-18.99,-19.91,0,*57
1514761312.43,34259,7.69,72954.8,-3.07,-18.93,-19.95,0,*5A
1514761313.66,34260,7.69,72962.3,-3.05,-18.99,-19.91,0,*5C
1514761314.92,34261,7.69,72950.5,-3.07,-19.23,-20.15,0,*59
1514761316.15,34262,7.69,72942.5,-3.05,-19.03,-20.09,0,*57
1514761317.4,34263,7.69,72940.5,-3.07,-18.93,-19.95,0,*53
1514761318.63,34264,7.69,72952.3,-3.07,-19.13,-20.15,0,*5F
1514761319.9,34265,7.69,72948.8,-3.07,-19.23,-20.15,0,*5D
1514761321.11,34266,7.69,72962.5,-3.07,-19.07,-19.99,0,*56
1514761322.35,34267,7.69,72962.5,-3.07,-19.23,-20.29,0,*50
1514761323.61,34268,7.69,72966.8,-3.07,-19.23,-20.19,0,*5C
1514761324.84,34269,7.63,72952.3,-3.05,-18.83,-19.91,0,*5E
1514761326.08,34270,7.63,72958.8,-3.07,-18.73,-19.65,0,*50
1514761327.32,34271,7.69,72942.0,-3.07,-18.93,-19.95,0,*50
1514761328.55,34272,7.69,72946.0,-3.05,-18.83,-19.91,0,*54
1514761329.79,34273,7.69,72928.0,-3.07,-18.79,-19.81,0,*53
1514761331.02,34274,7.69,72948.8,-3.07,-18.79,-19.81,0,*54
1514761332.23,34275,7.69,72950.0,-3.07,-18.49,-19.51,0,*5B
1514761333.46,34276,7.69,72954.8,-3.05,-18.73,-19.75,0,*55
1514761334.7,34277,7.69,72952.3,-3.09,-19.07,-20.09,0,*5B
1514761335.94,34278,7.63,72958.3,-3.07,-19.13,-20.15,0,*52
1514761337.19,34279,7.69,72944.0,-3.07,-18.89,-19.85,0,*52
1514761338.43,34280,7.69,72950.5,-3.07,-18.73,-19.81,0,*55
1514761339.66,34281,7.69,72946.8,-3.07,-18.89,-19.99,0,*58
1514761340.9,34282,7.69,72946.0,-3.07,-18.93,-19.95,0,*5C
1514761342.13,34283,7.69,72934.5,-3.05,-18.83,-19.91,0,*5A
1514761343.39,34284,7.69,72934.8,-3.05,-18.69,-19.65,0,*52
1514761344.6,34285,7.69,72956.3,-3.07,-18.73,-19.71,0,*5F
1514761345.85,34286,7.69,72960.3,-3.05,-18.69,-19.81,0,*5A
1514761347.09,34287,7.69,72940.5,-3.05,-18.69,-19.75,0,*50
1514761348.3,34288,7.69,72948.0,-3.07,-18.65,-19.71,0,*55
1514761349.51,34289,7.63,72970.8,-3.03,-18.83,-19.99,0,*5E
1514761350.75,34290,7.63,72982.3,-3.05,-19.17,-20.25,0,*51
1514761351.98,34291,7.63,72956.8,-3.05,-18.99,-20.09,0,*59
1514761353.21,34292,7.69,72966.8,-3.05,-18.83,-19.91,0,*5A
1514761354.45,34293,7.69,72980.8,-3.05,-18.73,-19.91,0,*54
1514761355.68,34294,7.69,72948.0,-3.05,-18.73,-19.91,0,*53
1514761356.91,34295,7.69,72936.3,-3.05,-18.99,-20.05,0,*51
1514761358.14,34296,7.63,72942.0,-3.05,-19.07,-20.09,0,*58
1514761359.38,34297,7.69,72952.8,-3.05,-19.07,-20.09,0,*59
1514761360.61,34298,7.63,72948.0,-3.05,-19.03,-20.09,0,*52
1514761361.84,34299,7.69,72918.5,-3.05,-18.99,-19.95,0,*5E
1514761363.1,34300,7.69,72956.8,-3.05,-18.83,-19.81,0,*51
1514761364.33,34301,7.69,72946.0,-3.03,-18.83,-19.85,0,*52
1514761365.58,34302,7.69,72954.0,-3.05,-19.07,-20.15,0,*59
1514761366.84,34303,7.69,72918.3,-3.05,-19.07,-20.15,0,*58
1514761368.07,34304,7.69,72928.3,-3.05,-19.03,-20.09,0,*56
1514761369.31,34305,7.69,72922.8,-3.07,-19.13,-20.19,0,*55
1514761370.59,34306,7.69,72922.5,-3.05,-18.55,-19.61,0,*52
1514761371.87,34307,7.69,72930.3,-3.05,-18.55,-19.65,0,*57
1514761373.15,34308,7.69,72898.5,-3.05,-18.59,-19.65,0,*54
1514761374.36,34309,7.69,72938.5,-3.03,-18.25,-19.17,0,*5D
1514761375.61,34310,7.69,72912.5,-3.05,-17.93,-19.03,0,*54
1514761376.84,34311,7.69,72950.8,-3.03,-18.01,-19.03,0,*57
1514761378.1,34312,7.69,72936.5,-3.01,-17.93,-18.99,0,*50
1514761379.35,34313,7.69,72942.8,-3.01,-17.79,-18.83,0,*5E
1514761380.61,34314,7.69,72940.3,-3.01,-17.93,-19.13,0,*55
1514761381.85,34315,7.69,72918.5,-3.01,-18.07,-19.17,0,*52
1514761383.08,34316,7.69,72944.0,-2.99,-18.21,-19.41,0,*56
1514761384.32,34317,7.69,72936.8,-2.99,-18.49,-19.65,0,*5F
1514761385.57,34318,7.69,72948.3,-2.97,-18.59,-19.71,0,*5A
1514761386.81,34319,7.69,72932.0,-2.99,-18.49,-19.57,0,*50
1514761388.07,34320,7.69,72930.0,-2.97,-18.35,-19.51,0,*59
1514761389.36,34321,7.69,72918.3,-2.97,-18.59,-19.57,0,*54
1514761390.65,34322,7.69,72926.3,-2.97,-18.31,-19.27,0,*5E
1514761391.88,34323,7.69,72942.8,-2.97,-18.79,-19.95,0,*5A
1514761393.12,34324,7.69,72942.5,-2.99,-18.93,-19.99,0,*5B
1514761394.36,34325,7.69,72926.3,-2.97,-18.79,-19.95,0,*5C
1514761395.57,34326,7.69,72902.5,-2.95,-18.69,-19.75,0,*52
1514761396.81,34327,7.63,72936.3,-2.91,-18.59,-19.75,0,*54
1514761398.04,34328,7.63,72954.3,-2.97,-18.99,-20.05,0,*5C
1514761399.27,34329,7.69,72946.3,-2.97,-18.65,-19.71,0,*57
1514761400.54,34330,7.69,72952.5,-2.97,-19.07,-20.19,0,*5E
1514761401.8,34331,7.63,72938.5,-2.97,-18.49,-19.57,0,*54
1514761403.06,34332,7.69,72926.5,-2.97,-18.31,-19.37,0,*5E
1514761404.32,34333,7.69,72934.8,-2.95,-18.55,-19.65,0,*58
1514761405.58,34334,7.69,72940.3,-2.95,-18.55,-19.65,0,*5F
1514761406.85,34335,7.69,72950.3,-2.95,-18.31,-19.31,0,*5D
1514761408.09,34336,7.69,72952.3,-2.91,-18.31,-19.37,0,*5C
1514761409.33,34337,7.69,72948.3,-2.95,-18.69,-19.81,0,*59
1514761410.54,34338,7.69,72936.3,-2.95,-18.83,-19.91,0,*53
1514761411.8,34339,7.69,72938.3,-2.91,-18.55,-19.65,0,*56
1514761413.01,34340,7.69,72940.8,-2.95,-18.83,-19.91,0,*5C
1514761414.22,34341,7.69,72932.8,-2.91,-18.73,-19.91,0,*56
1514761415.46,34342,7.63,72938.3,-2.95,-18.69,-19.81,0,*5B
1514761416.69,34343,7.69,72954.5,-2.91,-19.03,-20.15,0,*54
1514761417.91,34344,7.69,72958.3,-2.91,-19.17,-20.29,0,*59
1514761419.12,34345,7.69,72950.8,-2.95,-18.25,-19.47,0,*5E
1514761420.38,34346,7.69,72964.0,-2.95,-18.55,-19.65,0,*5A
1514761421.59,34347,7.63,72968.3,-2.95,-18.73,-19.91,0,*54
1514761422.84,34348,7.69,72968.3,-2.91,-19.23,-20.39,0,*53
1514761424.08,34349,7.69,72972.8,-2.95,-19.31,-20.29,0,*54
1514761425.29,34350,7.69,72970.5,-2.95,-19.17,-20.29,0,*58
1514761426.54,34351,7.69,72970.8,-2.95,-19.23,-20.43,0,*52
1514761427.78,34352,7.69,72970.5,-2.95,-18.93,-20.09,0,*55
1514761429.05,34353,7.69,72976.3,-2.95,-19.23,-20.53,0,*51
1514761430.31,34354,7.69,72974.0,-2.97,-19.41,-20.59,0,*5A
1514761431.58,34355,7.69,72964.8,-2.97,-19.37,-20.49,0,*5B
1514761432.88,34356,7.69,72966.5,-2.97,-19.27,-20.49,0,*59
1514761434.14,34357,7.69,72964.5,-2.97,-19.07,-20.35,0,*51
1514761435.4,34358,7.69,72970.5,-2.97,-19.07,-20.35,0,*5E
1514761436.66,34359,7.69,72970.8,-2.97,-19.07,-20.19,0,*51
1514761437.91,34360,7.69,72976.8,-2.95,-19.23,-20.39,0,*5D
1514761439.21,34361,7.69,72978.5,-2.97,-19.27,-20.49,0,*5D
1514761440.5,34362,7.69,72976.0,-2.97,-19.27,-20.35,0,*55
1514761441.76,34363,7.69,72972.5,-2.97,-19.41,-20.59,0,*5E
1514761443.03,34364,7.63,72972.0,-2.97,-19.41,-20.63,0,*50
1514761444.26,34365,7.69,72972.3,-2.97,-19.51,-20.73,0,*51
1514761445.55,34366,7.69,72970.0,-2.97,-19.57,-20.79,0,*5E
1514761446.81,34367,7.69,72968.0,-2.97,-19.71,-20.79,0,*5B
1514761448.04,34368,7.69,72976.5,-2.99,-19.85,-21.09,0,*57
1514761449.27,34369,7.69,72972.5,-2.99,-19.71,-20.79,0,*5B
1514761450.52,34370,7.69,72984.5,-2.99,-19.95,-21.23,0,*57
1514761451.78,34371,7.69,72984.5,-3.01,-20.05,-21.27,0,*51
1514761453.04,34372,7.69,72986.3,-3.01,-19.91,-21.03,0,*53
1514761454.33,34373,7.69,72980.0,-3.01,-19.61,-20.83,0,*54
1514761455.55,34374,7.63,72986.0,-3.03,-19.71,-20.93,0,*51
1514761456.79,34375,7.69,72988.0,-3.01,-19.91,-21.17,0,*51
1514761458.02,34376,7.69,72978.3,-3.03,-19.91,-21.03,0,*55
1514761459.27,34377,7.69,72946.0,-3.03,-19.57,-20.63,0,*59
1514761460.54,34378,7.69,72948.0,-3.03,-19.61,-20.83,0,*5D
1514761461.78,34379,7.69,72958.8,-3.03,-19.57,-20.69,0,*5D
1514761463.04,34380,7.69,72958.3,-3.05,-19.61,-20.73,0,*53
1514761464.26,34381,7.69,72942.0,-3.03,-19.47,-20.63,0,*51
1514761465.54,34382,7.69,72946.5,-3.05,-19.65,-20.83,0,*5A
1514761466.83,34383,7.69,72956.5,-3.05,-19.65,-20.83,0,*5B
1514761468.05,34384,7.69,72930.8,-3.07,-19.13,-20.43,0,*53
1514761469.28,34385,7.63,72916.0,-3.03,-19.41,-20.69,0,*59
1514761470.51,34386,7.69,72894.3,-3.07,-19.37,-20.63,0,*55
1514761471.72,34387,7.69,72888.3,-3.07,-19.07,-20.29,0,*59
1514761472.95,34388,7.69,72894.3,-3.05,-19.07,-20.25,0,*58
1514761474.19,34389,7.69,72886.8,-3.03,-18.99,-20.19,0,*56
1514761475.43,34390,7.69,72886.3,-3.05,-18.99,-20.05,0,*55
1514761476.66,34391,7.69,72904.8,-3.05,-19.17,-20.29,0,*5D
1514761477.88,34392,7.69,72928.8,-3.03,-19.47,-20.63,0,*53
1514761479.12,34393,7.69,72930.3,-3.07,-19.41,-20.63,0,*50
1514761480.38,34394,7.69,72930.0,-3.07,-19.57,-20.79,0,*5B
1514761481.6,34395,7.69,72942.5,-3.07,-19.71,-20.93,0,*5A
1514761482.89,34396,7.69,72944.8,-3.05,-19.61,-20.83,0,*5B
1514761484.15,34397,7.63,72926.5,-3.05,-19.65,-20.89,0,*54
1514761485.39,34398,7.69,72942.0,-3.05,-19.81,-21.09,0,*58
1514761486.61,34399,7.69,72934.3,-3.07,-19.71,-20.93,0,*56
1514761487.83,34400,7.63,72950.3,-3.07,-19.71,-20.93,0,*51
1514761489.12,34401,7.69,72954.8,-3.09,-19.85,-21.23,0,*5F
1514761490.35,34402,7.69,72954.8,-3.07,-19.81,-20.93,0,*5C
1514761491.63,34403,7.69,72948.0,-3.09,-19.85,-21.03,0,*5F
1514761492.9,34404,7.69,72936.0,-3.09,-19.95,-21.23,0,*5B
1514761494.11,34405,7.69,72946.8,-3.11,-19.91,-21.09,0,*5F
1514761495.32,34406,7.69,72952.3,-3.11,-19.99,-21.17,0,*5B
1514761496.61,34407,7.63,72950.0,-3.09,-19.65,-20.79,0,*59
1514761497.88,34408,7.69,72956.0,-3.09,-19.57,-20.63,0,*5C
1514761499.1,34409,7.69,72958.8,-3.11,-19.37,-20.59,0,*5B
1514761500.31,34410,7.63,72948.5,-3.11,-19.47,-20.63,0,*5D
1514761501.56,34411,7.69,72954.8,-3.09,-19.51,-20.63,0,*52
1514761502.84,34412,7.69,72948.0,-3.09,-19.65,-20.79,0,*5D
1514761504.05,34413,7.69,72946.8,-3.11,-19.75,-20.93,0,*50
1514761505.26,34414,7.69,72942.0,-3.11,-19.91,-21.17,0,*50
1514761506.55,34415,7.69,72944.0,-3.09,-19.85,-21.03,0,*58
1514761507.81,34416,7.63,72932.8,-3.11,-19.61,-20.83,0,*51
1514761509.03,34417,7.69,72938.3,-3.11,-19.47,-20.63,0,*5A
1514761510.26,34418,7.63,72938.5,-3.11,-19.75,-20.99,0,*51
1514761511.46,34419,7.63,72938.0,-3.11,-19.75,-21.09,0,*58
1514761512.68,34420,7.69,72934.8,-3.11,-19.71,-20.93,0,*54
1514761513.92,34421,7.69,72936.8,-3.11,-19.41,-20.39,0,*56
1514761515.13,34422,7.69,72930.3,-3.11,-18.83,-19.99,0,*5A
1514761516.37,34423,7.69,72936.0,-3.09,-18.79,-19.95,0,*5B
1514761517.61,34424,7.69,72920.5,-3.09,-19.03,-19.99,0,*5C
1514761518.84,34425,7.63,72892.5,-3.09,-19.03,-20.29,0,*5C
1514761520.09,34426,7.69,72894.0,-3.07,-19.27,-20.29,0,*57
1514761521.33,34427,7.69,72886.3,-3.07,-19.41,-20.63,0,*58
1514761522.54,34428,7.69,72892.5,-3.07,-19.51,-20.73,0,*57
1514761523.76,34429,7.69,72886.3,-3.07,-19.51,-20.63,0,*57
1514761525.0,34430,7.69,72896.5,-3.05,-19.51,-20.69,0,*57
1514761526.24,34431,7.69,72902.5,-3.07,-19.65,-20.93,0,*56
1514761527.5,34432,7.69,72904.8,-3.05,-19.65,-20.89,0,*5C
1514761528.74,34433,7.69,72908.0,-3.07,-19.71,-21.03,0,*59
1514761529.96,34434,7.69,72894.8,-3.07,-19.51,-20.59,0,*52
1514761531.23,34435,7.69,72898.0,-3.07,-19.27,-20.35,0,*58
1514761532.45,34436,7.69,72930.8,-3.07,-19.07,-20.29,0,*54
1514761533.68,34437,7.63,72904.8,-3.05,-18.99,-20.05,0,*5F
1514761534.89,34438,7.69,72922.5,-3.07,-19.07,-20.25,0,*56
1514761536.13,34439,7.69,72940.5,-3.05,-19.07,-20.25,0,*55
1514761537.37,34440,7.69,72936.3,-3.05,-19.17,-20.29,0,*56
1514761538.6,34441,7.69,72934.3,-3.05,-18.99,-20.05,0,*5E
1514761539.87,34442,7.69,72946.5,-3.05,-19.23,-20.39,0,*52
1514761541.09,34443,7.69,72946.8,-3.07,-19.51,-20.63,0,*5B
1514761542.35,34444,7.69,72942.8,-3.01,-18.93,-20.09,0,*59
1514761543.62,34445,7.69,72956.8,-3.01,-19.13,-20.35,0,*5E
1514761544.88,34446,7.69,72940.5,-3.01,-19.03,-20.19,0,*52
1514761546.11,34447,7.63,72940.8,-3.03,-19.13,-20.25,0,*5F
1514761547.34,34448,7.69,72950.0,-3.03,-19.75,-20.83,0,*5C
1514761548.58,34449,7.69,72928.3,-3.03,-20.05,-21.27,0,*5F
1514761549.81,34450,7.69,72928.5,-3.01,-20.25,-21.43,0,*55
1514761551.06,34451,7.69,72944.5,-3.01,-20.05,-21.33,0,*51
1514761552.27,34452,7.69,72944.0,-3.03,-19.99,-21.13,0,*5D
1514761553.51,34453,7.69,72944.8,-3.03,-19.91,-21.03,0,*55
1514761554.71,34454,7.69,72940.8,-3.03,-20.05,-21.17,0,*50
1514761555.95,34455,7.69,72950.5,-3.03,-20.05,-21.27,0,*52
1514761557.19,34456,7.69,72938.5,-3.01,-19.99,-21.13,0,*5B
1514761558.42,34457,7.69,72928.0,-3.03,-19.75,-20.83,0,*52
1514761559.68,34458,7.69,72904.3,-3.03,-19.61,-20.79,0,*5D
1514761560.92,34459,7.69,72904.3,-3.03,-19.71,-20.79,0,*5D
1514761562.16,34460,7.69,72912.5,-3.03,-19.85,-20.93,0,*58
1514761563.42,34461,7.69,72910.3,-3.03,-19.61,-20.79,0,*57
1514761564.7,34462,7.69,72922.3,-3.01,-19.85,-21.03,0,*50
1514761565.95,34463,7.69,72906.5,-3.03,-19.71,-20.83,0,*51
1514761567.19,34464,7.69,72918.3,-3.03,-19.47,-20.53,0,*5E
1514761568.48,34465,7.69,72908.8,-3.01,-19.31,-20.53,0,*5C
1514761569.72,34466,7.69,72912.3,-2.99,-19.23,-20.29,0,*51
1514761571.0,34467,7.69,72878.0,-3.01,-19.31,-20.39,0,*52
1514761572.23,34468,7.69,72902.0,-3.01,-19.03,-20.09,0,*5F
1514761573.48,34469,7.69,72886.0,-3.01,-19.13,-20.09,0,*5F
1514761574.71,34470,7.69,72870.3,-2.99,-18.99,-20.15,0,*59
1514761575.94,34471,7.69,72886.3,-2.99,-19.07,-20.15,0,*5E
1514761577.2,34472,7.69,72886.0,-2.97,-18.73,-19.85,0,*52
1514761578.41,34473,7.69,72878.8,-2.95,-18.83,-19.91,0,*5B
1514761579.67,34474,7.69,72904.8,-2.97,-18.49,-19.65,0,*53
1514761580.88,34475,7.69,72930.0,-2.95,-18.45,-19.51,0,*5B
1514761582.14,34476,7.69,72910.0,-2.91,-18.55,-19.61,0,*5E
1514761583.35,34477,7.69,72890.0,-2.91,-18.41,-19.51,0,*59
1514761584.56,34478,7.69,72908.5,-2.91,-18.45,-19.51,0,*52
1514761585.83,34479,7.69,72916.3,-2.89,-19.13,-20.19,0,*5E
1514761587.07,34480,7.69,72894.8,-2.87,-19.41,-20.39,0,*53
1514761588.31,34481,7.69,72914.5,-2.89,-19.47,-20.63,0,*55
1514761589.55,34482,7.63,72902.5,-2.87,-19.91,-21.03,0,*54
1514761590.81,34483,7.69,72918.8,-2.89,-19.71,-20.79,0,*59
1514761592.07,34484,7.69,72884.0,-2.89,-19.61,-20.69,0,*5E
1514761593.33,34485,7.69,72890.0,-2.89,-19.41,-20.63,0,*57
1514761594.6,34486,7.63,72884.5,-2.89,-19.61,-20.69,0,*5C
1514761595.86,34487,7.69,72888.8,-2.89,-19.61,-20.69,0,*5D
1514761597.12,34488,7.69,72906.3,-2.89,-19.57,-20.69,0,*57
1514761598.37,34489,7.69,72914.8,-2.89,-19.71,-20.89,0,*5C
1514761599.63,34490,7.69,72918.5,-2.89,-19.75,-20.99,0,*51
1514761600.89,34491,7.69,72934.0,-2.89,-19.91,-20.99,0,*5A
1514761602.1,34492,7.69,72942.3,-2.91,-19.91,-21.09,0,*58
1514761603.32,34493,7.69,72932.5,-2.89,-20.05,-21.13,0,*5C
1514761604.58,34494,7.63,72930.0,-2.89,-19.75,-20.79,0,*5B
1514761605.84,34495,7.69,72942.0,-2.89,-19.57,-20.69,0,*5B
1514761607.13,34496,7.69,72946.8,-2.89,-19.61,-20.79,0,*5C
1514761608.4,34497,7.69,72924.3,-2.89,-19.85,-20.79,0,*57
1514761609.66,34498,7.69,72920.5,-2.89,-19.85,-21.13,0,*55
1514761610.94,34499,7.69,72936.8,-2.89,-20.19,-21.27,0,*5C
1514761612.2,34500,7.69,72938.3,-2.89,-20.25,-21.33,0,*57
1514761613.42,34501,7.69,72926.0,-2.89,-20.05,-21.13,0,*56
1514761614.68,34502,7.69,72928.5,-2.89,-20.05,-21.27,0,*52
1514761615.92,34503,7.69,72938.5,-2.91,-20.09,-21.23,0,*52
1514761617.18,34504,7.69,72918.5,-2.91,-20.15,-21.23,0,*58
1514761618.43,34505,7.69,72902.3,-2.91,-19.81,-21.03,0,*5C
1514761619.66,34506,7.69,72904.0,-2.89,-20.09,-21.13,0,*5D
1514761620.91,34507,7.69,72904.0,-2.89,-20.25,-21.33,0,*50
1514761622.13,34508,7.69,72910.5,-2.91,-20.69,-21.77,0,*5E
1514761623.34,34509,7.69,72930.8,-2.91,-20.59,-21.77,0,*5C
1514761624.59,34510,7.69,72932.3,-2.91,-20.59,-21.67,0,*55
1514761625.8,34511,7.69,72914.0,-2.95,-20.43,-21.47,0,*59
1514761627.04,34512,7.69,72926.5,-2.91,-20.43,-21.33,0,*5D
1514761628.3,34513,7.69,72960.8,-2.95,-20.53,-21.67,0,*58
1514761629.55,34514,7.69,72948.8,-2.91,-20.43,-21.67,0,*5A
1514761630.82,34515,7.69,72948.5,-2.97,-20.35,-21.53,0,*5B
1514761632.03,34516,7.69,72944.3,-2.95,-20.09,-21.17,0,*55
1514761633.23,34517,7.69,72926.5,-2.95,-20.29,-21.47,0,*53
1514761634.44,34518,7.69,72926.3,-2.91,-20.29,-21.39,0,*51
1514761635.65,34519,7.69,72916.3,-2.91,-20.25,-21.39,0,*5C
1514761636.88,34520,7.69,72936.3,-2.95,-20.39,-21.53,0,*53
1514761638.08,34521,7.69,72912.0,-2.91,-20.29,-21.39,0,*5B
1514761639.34,34522,7.69,72918.3,-2.97,-20.15,-21.39,0,*51
1514761640.59,34523,7.69,72900.8,-2.97,-20.19,-21.13,0,*54
1514761641.8,34524,7.69,72902.8,-2.95,-19.99,-21.09,0,*58
1514761643.03,34525,7.69,72898.5,-2.91,-19.81,-20.93,0,*56
1514761644.28,34526,7.69,72902.3,-2.91,-19.81,-20.83,0,*54
1514761645.53,34527,7.69,72898.8,-2.91,-19.99,-21.23,0,*57
1514761646.74,34528,7.69,72900.5,-2.95,-20.39,-21.47,0,*5E
1514761647.96,34529,7.69,72908.0,-2.95,-20.43,-21.39,0,*5B
1514761649.2,34530,7.69,72910.3,-2.91,-20.43,-21.53,0,*5B
1514761650.44,34531,7.69,72908.3,-2.91,-19.91,-20.83,0,*53
1514761651.69,34532,7.69,72910.3,-2.95,-19.81,-20.83,0,*55
1514761652.94,34533,7.69,72912.8,-2.91,-20.15,-21.33,0,*5D
1514761654.15,34534,7.69,72922.3,-2.91,-20.29,-21.47,0,*56
1514761655.36,34535,7.69,72918.5,-2.91,-20.43,-21.63,0,*5D
1514761656.6,34536,7.69,72916.5,-2.95,-20.43,-21.53,0,*59
1514761657.83,34537,7.69,72896.3,-2.91,-20.15,-21.39,0,*53
1514761659.07,34538,7.69,72902.3,-2.91,-20.29,-21.23,0,*58
1514761660.28,34539,7.69,72904.8,-2.91,-20.73,-21.77,0,*57
1514761661.5,34540,7.69,72896.3,-2.91,-20.59,-21.77,0,*51
1514761662.74,34541,7.63,72890.5,-2.91,-20.89,-21.87,0,*52
1514761663.98,34542,7.69,72890.3,-2.95,-20.89,-21.87,0,*55
1514761665.19,34543,7.69,72900.0,-2.95,-20.43,-21.63,0,*58
1514761666.4,34544,7.69,72910.3,-2.95,-20.73,-21.63,0,*5C
1514761667.61,34545,7.69,72904.5,-2.95,-20.43,-21.39,0,*51
1514761668.85,34546,7.69,72918.8,-2.95,-20.73,-21.87,0,*54
1514761670.09,34547,7.69,72914.5,-2.95,-20.59,-21.67,0,*53
1514761671.33,34548,7.69,72894.8,-2.95,-20.39,-21.33,0,*5B
1514761672.57,34549,7.69,72898.0,-2.95,-20.89,-21.87,0,*5E
1514761673.8,34550,7.69,72910.5,-2.95,-20.93,-21.97,0,*5C
1514761675.03,34551,7.69,72912.0,-2.95,-20.93,-21.97,0,*5D
1514761676.27,34552,7.69,72904.0,-2.95,-20.89,-21.97,0,*55
1514761677.5,34553,7.69,72902.3,-2.95,-20.93,-21.87,0,*5E
1514761678.71,34554,7.69,72920.3,-2.99,-21.13,-22.07,0,*57
1514761679.92,34555,7.69,72924.3,-2.99,-21.09,-22.03,0,*59
1514761681.13,34556,7.69,72926.3,-2.99,-20.93,-22.03,0,*58
1514761682.33,34557,7.69,72922.0,-2.99,-21.09,-21.93,0,*51
1514761683.54,34558,7.69,72928.8,-2.99,-21.13,-22.07,0,*5B
1514761684.77,34559,7.69,72920.0,-2.97,-20.93,-22.07,0,*5D
1514761685.98,34560,7.69,72946.8,-2.99,-20.93,-21.93,0,*57
1514761687.18,34561,7.69,72950.0,-2.99,-20.73,-21.73,0,*56
1514761688.42,34562,7.69,72934.0,-2.99,-20.59,-21.57,0,*5B
1514761689.66,34563,7.63,72918.0,-2.99,-20.89,-21.87,0,*5A
1514761690.89,34564,7.69,72930.5,-2.99,-20.59,-21.57,0,*5D
1514761692.18,34565,7.69,72922.5,-2.97,-20.49,-21.67,0,*50
1514761693.41,34566,7.69,72912.0,-2.99,-20.73,-21.83,0,*5E
1514761694.62,34567,7.69,72906.3,-2.99,-20.93,-22.03,0,*5A
1514761695.88,34568,7.69,72906.5,-3.01,-20.99,-22.07,0,*5B
1514761697.11,34569,7.69,72892.5,-3.01,-20.93,-21.93,0,*5E
1514761698.37,34570,7.69,72900.5,-3.03,-21.27,-22.21,0,*50
1514761699.61,34571,7.69,72896.5,-3.03,-20.83,-21.77,0,*5E
1514761700.84,34572,7.69,72892.5,-3.01,-20.63,-21.63,0,*54
1514761702.1,34573,7.63,72904.3,-3.01,-20.53,-21.63,0,*56
1514761703.37,34574,7.69,72896.3,-3.01,-20.39,-21.27,0,*5D
1514761704.65,34575,7.69,72902.0,-3.01,-20.35,-21.27,0,*50